www.pogodaiklimat.ru

Погода и климат >> Архив погоды >> Россия >> Краснодарский край >> Краснодар


АРХИВ ПОГОДЫ в Краснодаре

Время (UTC), дата Ветер
(напр.,м/с)
 
Видим.   Явления Облачность Т
(С)
Тd
(С)
f
(%)
Тe
(С)
Тes
(С)
Комфортность P
(гПа)
Po
(гПа)
Тmin
(С)
Tmax
(С)
R
(мм)
R24
(мм)
S
(см)
15 11.08 СВ 7-11
{12}
10 км 1/0
[Ac trans]
+33.6 +10.0 24 +33 +33 жарко 1008.7 1004.9 +34.3
18 11.08 С 4
{11}
10 км ясно +29.3 +8.7 28 +29 +29 жарко 1008.8 1004.9
21 11.08 СВ 4 10 км ясно +26.4 +9.5 34 +27 +27 жарко 1008.8 1004.9
00 12.08 СВ 4 10 км 5/0
[Ac trans]
+25.0 +11.8 44 +27 +27 жарко 1009.4 1005.5
03 12.08 СВ 4 10 км 3/3 1000 м
[Sc]
+23.0 +12.2 51 +26 +26 жарко 1010.0 1006.0 +23.0
06 12.08 СВ 6
{10}
10 км ясно +25.4 +12.3 44 +27 +30 жарко 1009.7 1005.8
09 12.08 СВ 5 10 км ясно +30.3 +13.6 36 +32 +40 жарко 1009.5 1005.7
12 12.08 СВ 6
{11}
10 км ясно +33.6 +14.1 31 +35 +39 душно 1008.0 1004.2
15 12.08 СВ 6
{10}
10 км ясно +33.6 +12.6 28 +34 +34 очень
жарко
1006.5 1002.8 +34.4
18 12.08 СВ 5 10 км ясно +29.8 +9.4 28 +29 +29 жарко 1006.3 1002.5
21 12.08 СВ 4 10 км ясно +26.8 +8.8 32 +27 +27 жарко 1005.9 1002.0
00 13.08 СВ 4 н/о н/о +25.0 +11.7 43 +26 +26 жарко 1006.1 1002.2
03 13.08 СВ 4 10 км 3/3 1000 м
[Sc]
+23.3 +14.0 56 +27 +27 душно 1006.0 1002.1 +23.0
06 13.08 СВ 6 10 км ясно +26.9 +15.9 51 +30 +33 душно 1006.4 1002.5
09 13.08 В 6-11
{11}
10 км ясно +31.9 +17.2 41 +35 +42 очень
душно
1006.3 1002.5
12 13.08 В 7-10
{11}
10 км ясно +35.0 +14.7 30 +36 +40 очень
жарко
1005.3 1001.5
15 13.08 СВ 5
{10}
10 км 8/0
[Ac As]
+34.3 +13.2 28 +35 +35 очень
жарко
1004.4 1000.6 +36.0
18 13.08 СВ 3 10 км 8/0
[Ac As]
+29.0 +12.4 36 +30 +30 жарко 1004.7 1000.9
21 13.08 СВ 4 10 км 8/0
[Ac As]
+28.2 +8.5 29 +28 +28 жарко 1005.4 1001.5
00 14.08 СВ 4 10 км 8/0
[Ac As]
+25.1 +9.4 37 +26 +26 жарко 1006.2 1002.3
03 14.08 СВ 3 10 км 3/0
[Ac As]
+23.1 +12.7 52 +26 +26 жарко 1006.9 1003.0 +22.9
06 14.08 В 5 10 км ясно +26.8 +14.7 47 +29 +33 жарко 1007.9 1004.0
09 14.08 В 3 10 км 3/0
[Ac trans]
+31.8 +17.6 43 +36 +47 очень
душно
1008.2 1004.4
12 14.08 В 2 10 км 8/5 1000 м
[Cb cap Ac trans]
+32.7 +17.1 39 +36 +40 очень
душно
1007.7 1003.9
15 14.08 С 1 10 км 9/5 1000 м
[Sc diur, vesp Ac inh]
+33.5 +15.3 34 +36 +36 очень
душно
1007.6 1003.8 +34.1
18 14.08 Ю 1 10 км ясно +27.8 +20.2 63 +34 +34 очень
душно
1009.2 1005.3
21 14.08 З 3 10 км ясно +25.9 +18.7 65 +31 +31 очень
душно
1009.5 1005.6
00 15.08 З 3 10 км ясно +23.7 +21.3 86 +30 +30 очень
душно
1009.8 1005.9
03 15.08 Ю 2 10 км 10/10 1000 м
[St As trans]
+21.7 +19.8 89 +27 +27 душно 1010.4 1006.5 +21.4
06 15.08 СЗ 1 10 км 4/1 1000 м
[Sc Ac trans Cc]
+27.1 +20.8 68 +34 +41 очень
душно
1010.6 1006.8
09 15.08 СВ 3 10 км 10/3 1000 м
[Cu med, cong Ci fib]
+31.6 +19.7 49 +37 +45 очень
душно
1010.7 1006.9
12 15.08 В 2 10 км 10/4 1000 м
[Cb cap Ac trans Ci fib]
+31.0 +14.3 36 +33 +36 душно 1010.5 1006.6
15 15.08 Ю 2 10 км 10/3 1000 м
[Cb cap Ac trans Ci fib]
+26.3 +18.9 64 +31 +32 душно 1011.2 1007.3 +32.7
18 15.08 С 2 10 км 3/0
[Ac trans]
+23.4 +18.6 74 +30 +30 очень
душно
1011.8 1007.9
21 15.08 СВ 4 10 км ясно +22.6 +13.5 56 +26 +26 жарко 1011.5 1007.6
00 16.08 СВ 3 10 км ясно +21.2 +13.2 60 +24 +24 комфорт 1011.4 1007.4
03 16.08 СВ 3 10 км 4/0
[Ci fib]
+19.8 +12.9 64 +22 +22 комфорт 1011.8 1007.8 +19.7
06 16.08 СВ 7-10
{10}
10 км 3/0
[Ac trans]
+24.8 +13.7 50 +27 +29 жарко 1012.4 1008.5
09 16.08 СВ 8-11
{12}
10 км 4/0
[Cc]
+31.5 +7.9 23 +30 +33 жарко 1011.7 1007.9
12 16.08 СВ 8-11
{13}
10 км 4/0
[Cc]
+33.3 +8.1 21 +32 +33 жарко 1010.9 1007.0
15 16.08 СВ 6
{13}
10 км 3/0
[Ci fib]
+31.9 +8.2 23 +31 +31 жарко 1010.1 1006.3 +33.6
18 16.08 СВ 4
{10}
10 км ясно +26.7 +8.2 31 +27 +27 жарко 1010.6 1006.7
21 16.08 СВ 4 н/о н/о +24.6 +9.4 38 +25 +25 комфорт 1010.6 1006.6
00 17.08 СВ 4 н/о н/о +23.4 +10.2 43 +25 +25 комфорт 1010.3 1006.4
03 17.08 СВ 4 10 км 4/4 1000 м
[Sc]
+21.5 +9.7 47 +23 +23 комфорт 1010.9 1007.0 +21.4
06 17.08 СВ 7-10
{10}
10 км 4/4 1000 м
[Cu Sc]
+25.4 +13.6 48 +28 +29 жарко 1011.0 1007.1
09 17.08 СВ 7-11
{13}
10 км 8/8 1000 м
[Sc Ac cast]
+30.3 +14.4 38 +32 +33 жарко 1010.6 1006.8
12 17.08 В 6
{11}
10 км 9/4 1000 м
[Sc Ac cast Ci fib]
+31.9 +15.0 36 +34 +35 душно 1009.8 1005.9
15 17.08 СВ 5 10 км 8/8 1000 м
[Sc diur, vesp]
+32.8 +13.1 30 +33 +34 жарко 1009.0 1005.2 +33.3
18 17.08 СВ 3 10 км 5/0
[Ac As]
+27.6 +12.0 38 +29 +29 жарко 1009.3 1005.4
21 17.08 СВ 3 10 км ясно +24.6 +11.4 44 +26 +26 жарко 1009.3 1005.4
00 18.08 СВ 5 10 км н/о +24.1 +14.5 55 +27 +27 жарко 1009.9 1006.0
03 18.08 СВ 5 10 км 3/0
[Ac trans]
+23.2 +12.3 50 +26 +26 жарко 1011.1 1007.2 +23.2
06 18.08 В 6-10
{10}
10 км ясно +26.9 +14.2 46 +29 +32 жарко 1012.6 1008.8 +23.1
09 18.08 В 10-14
{15}
10 км ясно +30.4 +12.6 34 +31 +32 жарко 1012.8 1009.0
12 18.08 В 7-10
{14}
10 км 8/6 1000 м
[Cb calv Ac As]
+30.7 +10.1 28 +30 +31 жарко 1013.1 1009.3

 

Местоположение метеостанции Краснодар (Краснодарский край, Россия): широта 45.05 долгота 39.03 высота над уровнем моря 29 м.

В архиве по умолчанию представлена погода в Краснодаре за последнюю неделю. Архивные данные за месяц целиком и за предыдущие месяцы, начиная с января 2011 года, Вы можете получить, выбрав интересующий диапазон дат из раскрывающегося списка и нажав кнопку "Ввод!".

Внимание! Время в таблицах - всемирное. Для получения местного времени необходимо прибавить поправку, которая в Краснодаре равна 3 ч.

Смотрите также архив погоды в соседних городах и на ближайших метеорологических станциях:

Погода в Горячем Ключе (Краснодарский край, Россия) (47 км)
Погода в Усть-Лабинске (Краснодарский край, Россия) (58 км)
Погода в Кореновске (Краснодарский край, Россия) (59 км)
Погода в Тимашевске (Краснодарский край, Россия) (65 км)
Погода в Славянске-на-Кубани (Краснодарский край, Россия) (76 км)
Погода в Белореченске (Краснодарский край, Россия) (76 км)
Погода в Крымске (Краснодарский край, Россия) (82 км)
Погода в Джубге (Краснодарский край, Россия) (84 км)
Погода в Горном (Краснодарский край, Россия) (88 км)
Погода в Геленджике (Краснодарский край, Россия) (92 км)

Пояснения к столбцам:

Ветер - указаны скорость ветра в м/с - средняя за 10 мин, порывы в срок и между сроками (в фигурных скобках) и направление, откуда дует ветер: С - северный, СВ - северо-восточный, В - восточный, ЮВ - юго-восточный, Ю - южный, ЮЗ - юго-западный, З - западный, СЗ - северо-западный.
Видимость - горизонтальная дальность видимости в метрах или километрах. При видимости от 1 до 10 км при отсутствии осадков обычно наблюдается дымка, при ухудшении видимости до 1 км и менее - туман. В сухую погоду видимость может ухудшаться дымом, пылью или мглою.
Явления - указаны атмосферные явления, наблюдавшиеся в срок или в последний час перед сроком; фигурными скобками обозначены явления, наблюдавшиеся между сроками (за 1-3 часа до срока); квадратными скобками обозначены град или гололедные отложения с указанием их диаметра в мм.
Облачность - указаны через наклонную черту общая и нижняя облачность в баллах и высота нижней границы облаков в метрах; квадратными скобками обозначены формы облаков: Ci - перистые, Cs - перисто-слоистые, Cc - перисто-кучевые, Ac - высококучевые, As - высокослоистые, Sc - слоисто-кучевые, Ns - слоисто-дождевые, Cu - кучевые, Cb - кучево-дождевые. Подробнее классификацию облаков см. в Атласе облаков (PDF).
T - Температура воздуха - температура, измеренная на высоте 2 м над землей.
Td - Температура точки росы - температура, при понижении до которой содержащийся в воздухе водяной пар достигнет насыщения.
f - Относительная влажность воздуха - влажноcть воздуха, измеренная на высоте 2 м над землей.
Te - Эффективная температура - температура, которую ощущает одетый по сезону человек в тени. Характеристика душности погоды. При расчете учитывается влияние влажности воздуха и скорости ветра на теплоощущения человека.
Tes - Эффективная температура на солнце - температура, которую ощущает человек, с поправкой на солнечный нагрев. Характеристика знойности погоды. Зависит от высоты солнца над горизонтом, облачности и скорости ветра. Ночью, в пасмурную погоду, а также при ветре 12 м/с и более поправка равна нулю.
P - Атмосферное давление - приведенное к уровню моря атмосферное давление.
Po - Атмосферное давление - измеренное на уровне метеостанции атмосферное давление.
Tmin - Минимальная температура - минимум температуры воздуха на высоте 2 м над землей.
Tmax - Максимальная температура - максимум температуры воздуха на высоте 2 м над землей.
R - Количество осадков - Количество выпавших осадков за период времени, мм. При наведении курсора мыши на число - период времени, за который выпало указанное количество осадков.
R24 - Количество осадков - Количество выпавших осадков за 24 часа, мм.
S - Снежный покров - Высота снежного покрова, см. При наведении курсора мыши на число - состояние снежного покрова и степень покрытия местности в баллах.